This is the latest recevied weather packets stored in our database for station/object NI4CE-10. If no packets are shown the sender has not sent any weather packets the latest 10 day(s).
| Time | Temp. | Humidity | Pressure | Rain* | Wind** | Luminosity | Snow |
|---|---|---|---|---|---|---|---|
| 1787942005 | 38.33° C | 100% | 1018.2 hPa | 0 mm | - | - | - |
| 1787941926 | 38.89° C | 100% | 1018.4 hPa | 0 mm | - | - | - |
| 1787941705 | 38.89° C | 100% | 1018.4 hPa | 0 mm | - | - | - |
| 1787941626 | 39.44° C | 100% | 1018.5 hPa | 0 mm | - | - | - |
| 1787941405 | 39.44° C | 100% | 1018.5 hPa | 0 mm | - | - | - |
| 1787941106 | 40.56° C | 100% | 1018.5 hPa | 0 mm | - | - | - |
| 1787941022 | 43.33° C | 100% | 1018.6 hPa | 0 mm | - | - | - |
| 1787940805 | 43.33° C | 100% | 1018.6 hPa | 0 mm | - | - | - |
| 1787940506 | 38.89° C | 100% | 1018.8 hPa | 0 mm | - | - | - |
| 1787940206 | 43.33° C | 100% | 1018.8 hPa | 0 mm | - | - | - |
| 1787939911 | 40.56° C | 100% | 1018.9 hPa | 0 mm | - | - | - |
| 1787939794 | 41.67° C | 100% | 1019 hPa | 0 mm | - | - | - |
| 1787939606 | 41.67° C | 100% | 1019 hPa | 0 mm | - | - | - |
| 1787939306 | 41.11° C | 100% | 1019.1 hPa | 0 mm | - | - | - |
| 1787939006 | 50° C | 100% | 1019 hPa | 0 mm | - | - | - |
| 1787938881 | 48.89° C | 100% | 1019.2 hPa | 0 mm | - | - | - |
| 1787938706 | 48.89° C | 100% | 1019.2 hPa | 0 mm | - | - | - |
| 1787938540 | 47.78° C | 100% | 1019.2 hPa | 0 mm | - | - | - |
| 1787938406 | 47.78° C | 100% | 1019.2 hPa | 0 mm | - | - | - |
| 1787938106 | 46.67° C | 100% | 1019.2 hPa | 0 mm | - | - | - |
| 1787937992 | 49.44° C | 100% | 1019.3 hPa | 0 mm | - | - | - |
| 1787937806 | 49.44° C | 100% | 1019.3 hPa | 0 mm | - | - | - |
| 1787937506 | 50.56° C | 100% | 1019.3 hPa | 0 mm | - | - | - |
| 1787937206 | 50.56° C | 100% | 1019.4 hPa | 0 mm | - | - | - |
| 1787936906 | 51.67° C | 100% | 1019.5 hPa | 0 mm | - | - | - |
* Rain latest hour (hover to see other rain measurements)
** Current wind speed in m/s (hover to see current wind gust speed)